Location: Austin
(30.3000°N, 97.7500°W)
Time: 19:03:49
(UTC-05:00)

CZ-4B R/B - Pass Details

Date: 20 April 2024
Orbit: 808 x 880 km, 98.9° (Epoch: 28 April)

Event Time Altitude Azimuth Distance (km) Brightness Sun altitude
Rises 10:54:55 0° 359° (N) 3,358 6.2 49.7°
Reaches altitude 10° 10:57:31 10° 349° (N) 2,413 5.5 50.2°
Maximum altitude 11:02:05 30° 290° (WNW) 1,422 4.4 51.2°
Drops below altitude 10° 11:06:37 10° 231° (SW) 2,384 5.5 52.1°
Enters shadow 11:41:25 -68° 181° (S) 12,737 8.8 58.9°
Exits shadow 12:06:28 -60° 43° (NE) 12,076 8.6 63.3°
